Date,TemperatureHighF,TemperatureAvgF,TemperatureLowF,DewpointHighF,DewpointAvgF,DewpointLowF,HumidityHigh,HumidityAvg,HumidityLow,PressureMaxIn,PressureMinIn,WindSpeedMaxMPH,WindSpeedAvgMPH,GustSpeedMaxMPH,PrecipitationSumIn
2013-3-1,33.7,30.9,25.8,31.9,28.6,23.9,97,91,83,29.85,29.66,14,6,17,0.02
2013-3-2,25.7,22.1,20.0,23.9,18.4,16.6,93,86,77,29.89,29.83,10,5,12,0.00
2013-3-3,25.9,21.9,17.2,19.7,17.6,15.1,92,84,71,29.84,29.77,13,5,15,0.00
2013-3-4,28.4,22.8,18.5,21.6,17.4,13.6,88,80,66,29.97,29.79,16,7,19,0.00
2013-3-5,36.4,27.9,22.6,27.2,22.5,18.7,89,80,68,30.10,29.97,8,3,12,0.02
2013-3-6,43.8,35.0,27.0,33.5,30.2,24.6,94,83,65,30.19,30.08,19,7,24,0.00
2013-3-7,33.9,31.5,27.6,29.2,26.1,23.7,94,81,70,30.27,30.16,13,6,20,0.00
2013-3-8,38.8,31.1,20.3,26.1,23.6,18.2,92,74,56,30.36,30.22,12,4,14,0.00
2013-3-9,37.7,21.1,14.6,25.5,17.8,12.5,93,88,61,30.40,30.33,5,1,6,0.00
2013-3-10,58.2,53.5,50.2,27.1,23.3,20.4,39,31,23,30.09,29.99,13,5,18,0.00
2013-3-11,56.0,51.0,39.9,41.6,29.8,26.0,75,45,35,30.03,29.72,16,4,22,0.02
2013-3-12,49.9,41.2,36.0,45.0,38.5,33.3,96,90,75,29.82,29.68,19,7,26,0.19
2013-3-13,40.1,35.2,31.2,34.6,30.5,25.1,94,83,60,29.83,29.74,17,6,22,0.00
2013-3-14,31.0,20.3,14.2,26.1,13.6,6.6,93,75,61,29.97,29.74,18,8,23,0.00
2013-3-15,38.0,24.6,14.2,32.6,18.5,8.3,94,78,64,29.98,29.55,22,6,28,0.00
2013-3-16,22.7,16.8,7.1,17.7,9.2,3.5,88,72,58,29.96,29.83,10,3,12,0.00
2013-3-17,25.3,16.2,5.6,11.8,6.4,2.0,88,67,40,30.36,29.95,14,4,18,0.00
2013-3-18,33.2,21.1,3.1,24.6,9.1,0.0,88,63,35,30.43,29.95,14,4,17,0.00
2013-3-19,38.7,33.6,28.1,33.7,30.1,25.2,95,87,76,29.76,29.66,20,5,24,0.16
2013-3-20,34.6,27.9,20.5,28.2,22.7,18.0,91,81,65,29.74,29.66,20,7,27,0.01
2013-3-21,33.8,27.8,19.9,23.0,19.5,15.8,87,72,52,29.71,29.63,18,8,23,0.00
2013-3-22,30.8,26.8,22.9,25.7,21.8,17.0,93,82,63,29.79,29.64,13,6,19,0.01
2013-3-23,38.4,32.5,25.4,26.6,24.0,21.8,93,72,54,29.89,29.77,20,8,28,0.01
2013-3-24,39.7,33.5,25.1,29.1,25.7,22.3,89,73,61,29.93,29.80,11,4,16,0.00
2013-3-25,43.0,32.9,22.5,30.6,26.2,20.3,93,77,58,29.81,29.62,16,4,24,0.00
2013-3-26,45.9,37.6,28.2,28.7,26.4,23.1,89,66,46,29.82,29.68,14,4,14,0.00
2013-3-27,46.3,39.3,33.8,33.5,30.4,28.4,85,71,56,29.96,29.80,13,5,19,0.00
2013-3-28,48.5,39.7,31.4,37.8,33.4,27.3,88,79,65,30.09,29.94,11,3,13,0.00
2013-3-29,44.9,39.9,34.4,36.3,33.5,30.8,92,79,58,30.11,30.05,12,4,16,0.01
2013-3-30,51.5,38.6,23.8,31.2,24.1,17.3,96,62,26,30.15,30.03,11,3,17,0.01
2013-3-31,57.6,44.3,31.7,40.8,29.2,21.5,95,59,30,30.04,29.61,25,6,27,0.13